QPF
0.00 0.00 0.00 0.00 0.00 0.00 0.00 0.00 0.02 0.04 0.02 0.01 0.02 0.05 0.12 0.09 0.12 0.18 0.19 0.14 0.14 0.18 0.15 0.12 0.08 0.09 0.03 0.02 0.01 0.00 0.00 0.01 0.01 0.01 0.01 0.01 0.00 0.00 0.00 0.00 0.00 0.00 0.00 0.00
0.00 0.00 0.00 0.00 0.00 0.00 0.00 0.01 0.02 0.02 0.01 0.00 0.01 0.03 0.04 0.05 0.07 0.12 0.16 0.10 0.09 0.15 0.18 0.13 0.05 0.03 0.01 0.01 0.00 0.00 0.00 0.01 0.01 0.01 0.01 0.01 0.01 0.00 0.00 0.00 0.00 0.00 0.00 0.00
0.00 0.00 0.00 0.00 0.00 0.00 0.01 0.01 0.01 0.01 0.00 0.02 0.04 0.08 0.04 0.02 0.03 0.04 0.04 0.04 0.03 0.05 0.09 0.08 0.03 0.01 0.01 0.00 0.00 0.00 0.01 0.01 0.01 0.01 0.01 0.01 0.01 0.00 0.00 0.00 0.00 0.00 0.00 0.00
0.00 0.00 0.00 0.00 0.00 0.00 0.02 0.01 0.00 0.00 0.01 0.06 0.05 0.10 0.06 0.02 0.03 0.03 0.02 0.01 0.03 0.04 0.04 0.04 0.01 0.00 0.00 0.00 0.00 0.00 0.01 0.02 0.02 0.01 0.01 0.01 0.00 0.00 0.00 0.00 0.00 0.00 0.00 0.00
0.00 0.00 0.00 0.00 0.00 0.00 0.00 0.00 0.00 0.01 0.02 0.07 0.04 0.03 0.03 0.01 0.01 0.00 0.00 0.00 0.01 0.01 0.01 0.01 0.00 0.00 0.00 0.00 0.00 0.00 0.03 0.02 0.02 0.01 0.01 0.01 0.00 0.00 0.00 0.00 0.00 0.00 0.00 0.00
0.00 0.00 0.00 0.00 0.00 0.00 0.00 0.00 0.03 0.05 0.08 0.15 0.05 0.01 0.02 0.02 0.01 0.00 0.00 0.00 0.00 0.00 0.00 0.00 0.00 0.00 0.00 0.00 0.00 0.00 0.02 0.02 0.01 0.00 0.00 0.00 0.00 0.00 0.00 0.00 0.00 0.00 0.00 0.00
0.01 0.01 0.01 0.00 0.00 0.00 0.00 0.00 0.09 0.18 0.21 0.10 0.01 0.00 0.00 0.00 0.00 0.00 0.00 0.00 0.00 0.00 0.00 0.00 0.00 0.00 0.00 0.00 0.00 0.00 0.01 0.01 0.00 0.00 0.00 0.00 0.00 0.00 0.00 0.00 0.00 0.00 0.00 0.00
0.01 0.02 0.02 0.01 0.00 0.00 0.00 0.00 0.01 0.03 0.04 0.01 0.00 0.00 0.00 0.00 0.00 0.00 0.00 0.00 0.00 0.00 0.00 0.00 0.00 0.00 0.00 0.00 0.00 0.00 0.00 0.01 0.00 0.00 0.00 0.00 0.00 0.00 0.00 0.00 0.00 0.00 0.00 0.00
0.00 0.01 0.01 0.00 0.00 0.00 0.00 0.00 0.00 0.00 0.00 0.01 0.01 0.00 0.00 0.00 0.00 0.00 0.00 0.00 0.00 0.00 0.00 0.00 0.00 0.00 0.00 0.00 0.00 0.00 0.00 0.00 0.00 0.00 0.00 0.00 0.00 0.00 0.00 0.00 0.00 0.00 0.00 0.00
0.00 0.00 0.00 0.00 0.00 0.00 0.00 0.00 0.00 0.00 0.00 0.01 0.03 0.03 0.01 0.00 0.00 0.00 0.00 0.00 0.00 0.00 0.00 0.00 0.00 0.00 0.00 0.00 0.00 0.00 0.00 0.00 0.00 0.00 0.00 0.00 0.00 0.00 0.00 0.00 0.00 0.00 0.00 0.00
0.00 0.00 0.01 0.01 0.01 0.00 0.00 0.00 0.00 0.00 0.00 0.00 0.06 0.06 0.01 0.00 0.00 0.00 0.00 0.00 0.00 0.00 0.00 0.00 0.00 0.00 0.00 0.00 0.00 0.00 0.00 0.00 0.00 0.00 0.00 0.00 0.00 0.00 0.00 0.00 0.00 0.00 0.00 0.01
0.00 0.00 0.00 0.01 0.01 0.00 0.00 0.00 0.00 0.00 0.00 0.00 0.01 0.02 0.00 0.00 0.00 0.00 0.00 0.00 0.00 0.00 0.00 0.00 0.00 0.00 0.00 0.00 0.00 0.00 0.00 0.00 0.00 0.00 0.00 0.00 0.00 0.00 0.00 0.00 0.00 0.00 0.00 0.01
0.00 0.00 0.00 0.03 0.06 0.03 0.01 0.00 0.00 0.00 0.00 0.00 0.00 0.01 0.01 0.00 0.00 0.00 0.00 0.00 0.00 0.00 0.00 0.00 0.00 0.00 0.00 0.00 0.00 0.00 0.00 0.00 0.00 0.00 0.00 0.00 0.00 0.00 0.00 0.00 0.00 0.00 0.00 0.01
0.00 0.00 0.00 0.03 0.05 0.02 0.01 0.00 0.00 0.00 0.00 0.00 0.01 0.01 0.00 0.00 0.00 0.00 0.00 0.00 0.00 0.00 0.00 0.00 0.00 0.00 0.00 0.00 0.00 0.00 0.00 0.00 0.00 0.00 0.00 0.00 0.00 0.00 0.00 0.00 0.00 0.00 0.00 0.01
0.00 0.00 0.00 0.00 0.00 0.00 0.00 0.00 0.00 0.00 0.00 0.00 0.00 0.00 0.00 0.00 0.00 0.00 0.00 0.00 0.00 0.00 0.00 0.00 0.00 0.00 0.00 0.00 0.00 0.00 0.00 0.00 0.00 0.00 0.00 0.00 0.00 0.00 0.00 0.00 0.00 0.00 0.00 0.00
0.00 0.00 0.00 0.00 0.00 0.00 0.00 0.00 0.00 0.00 0.00 0.00 0.00 0.00 0.00 0.00 0.00 0.00 0.00 0.00 0.00 0.00 0.00 0.00 0.00 0.00 0.00 0.00 0.00 0.00 0.00 0.00 0.00 0.00 0.00 0.00 0.00 0.00 0.00 0.00 0.00 0.00 0.00 0.00
0.00 0.00 0.00 0.00 0.01 0.00 0.00 0.00 0.00 0.00 0.00 0.00 0.00 0.00 0.00 0.00 0.00 0.00 0.00 0.00 0.00 0.00 0.00 0.00 0.00 0.00 0.00 0.00 0.00 0.00 0.00 0.00 0.00 0.00 0.00 0.00 0.00 0.00 0.00 0.00 0.00 0.00 0.00 0.00
0.01 0.01 0.00 0.00 0.00 0.00 0.00 0.00 0.00 0.00 0.00 0.00 0.00 0.00 0.00 0.00 0.00 0.00 0.00 0.00 0.00 0.00 0.00 0.00 0.00 0.00 0.00 0.00 0.00 0.00 0.00 0.00 0.00 0.00 0.00 0.00 0.00 0.00 0.00 0.00 0.00 0.00 0.00 0.00
0.01 0.00 0.00 0.00 0.01 0.01 0.02 0.01 0.01 0.01 0.01 0.00 0.00 0.00 0.00 0.00 0.00 0.00 0.00 0.00 0.00 0.00 0.00 0.00 0.00 0.00 0.00 0.00 0.00 0.00 0.00 0.00 0.00 0.00 0.00 0.00 0.00 0.00 0.00 0.00 0.00 0.00 0.00 0.00
0.01 0.01 0.00 0.00 0.01 0.03 0.03 0.03 0.02 0.02 0.03 0.04 0.01 0.00 0.00 0.01 0.02 0.01 0.00 0.01 0.01 0.00 0.00 0.00 0.00 0.00 0.00 0.00 0.00 0.00 0.00 0.00 0.00 0.00 0.00 0.00 0.00 0.00 0.00 0.00 0.00 0.00 0.00 0.00
0.06 0.04 0.01 0.01 0.01 0.01 0.03 0.03 0.03 0.05 0.08 0.05 0.03 0.01 0.01 0.00 0.01 0.00 0.00 0.00 0.00 0.00 0.00 0.00 0.00 0.00 0.00 0.00 0.00 0.00 0.00 0.00 0.00 0.00 0.00 0.00 0.00 0.00 0.00 0.00 0.00 0.00 0.00 0.00
0.04 0.02 0.01 0.01 0.03 0.05 0.05 0.04 0.04 0.06 0.06 0.05 0.02 0.01 0.00 0.00 0.00 0.00 0.00 0.00 0.00 0.00 0.00 0.00 0.00 0.00 0.00 0.00 0.00 0.00 0.00 0.00 0.00 0.00 0.00 0.00 0.00 0.00 0.00 0.00 0.00 0.00 0.00 0.00
0.02 0.01 0.00 0.01 0.04 0.03 0.03 0.04 0.03 0.01 0.01 0.00 0.00 0.00 0.00 0.00 0.00 0.00 0.00 0.00 0.00 0.00 0.00 0.00 0.00 0.00 0.00 0.00 0.00 0.00 0.00 0.00 0.00 0.00 0.00 0.00 0.00 0.00 0.00 0.00 0.00 0.00 0.00 0.00
0.01 0.01 0.01 0.02 0.03 0.03 0.02 0.01 0.00 0.00 0.00 0.00 0.00 0.00 0.00 0.00 0.00 0.00 0.00 0.00 0.00 0.00 0.00 0.00 0.00 0.00 0.00 0.00 0.00 0.00 0.00 0.00 0.00 0.00 0.01 0.01 0.00 0.01 0.01 0.00 0.00 0.00 0.00 0.00
0.01 0.00 0.01 0.03 0.05 0.07 0.04 0.02 0.00 0.00 0.00 0.00 0.00 0.00 0.00 0.00 0.00 0.00 0.00 0.00 0.00 0.00 0.00 0.00 0.00 0.00 0.00 0.00 0.00 0.00 0.00 0.01 0.02 0.02 0.02 0.02 0.02 0.02 0.02 0.01 0.01 0.00 0.00 0.00
0.00 0.00 0.00 0.01 0.02 0.02 0.03 0.01 0.00 0.00 0.00 0.00 0.00 0.00 0.00 0.00 0.00 0.00 0.00 0.00 0.00 0.00 0.00 0.00 0.00 0.00 0.00 0.00 0.00 0.00 0.00 0.01 0.03 0.03 0.03 0.02 0.02 0.01 0.01 0.01 0.00 0.00 0.00 0.00
MSLP
1009.07 1009.19 1009.32 1009.50 1009.80 1010.25 1010.82 1011.47 1012.10 1012.64 1013.00 1013.14 1013.05 1012.78 1012.40 1012.00 1011.67 1011.47 1011.43 1011.57 1011.84 1012.19 1012.57 1012.91 1013.20 1013.42 1013.58 1013.71 1013.86 1014.04 1014.27 1014.56 1014.90 1015.26 1015.61 1015.93 1016.19 1016.37 1016.48 1016.53 1016.52 1016.48 1016.42 1016.35
1009.05 1009.07 1009.08 1009.18 1009.44 1009.89 1010.53 1011.27 1012.03 1012.69 1013.16 1013.37 1013.30 1013.01 1012.57 1012.10 1011.70 1011.45 1011.41 1011.57 1011.90 1012.32 1012.76 1013.14 1013.43 1013.61 1013.71 1013.76 1013.81 1013.91 1014.10 1014.38 1014.73 1015.13 1015.53 1015.88 1016.15 1016.32 1016.40 1016.40 1016.35 1016.28 1016.22 1016.19
1008.87 1008.79 1008.72 1008.77 1009.02 1009.51 1010.22 1011.08 1011.97 1012.76 1013.32 1013.58 1013.53 1013.21 1012.71 1012.15 1011.67 1011.36 1011.28 1011.43 1011.77 1012.23 1012.71 1013.12 1013.42 1013.58 1013.64 1013.64 1013.65 1013.71 1013.88 1014.17 1014.55 1014.99 1015.42 1015.79 1016.07 1016.23 1016.28 1016.24 1016.15 1016.07 1016.02 1016.03
1008.56 1008.41 1008.30 1008.34 1008.62 1009.18 1009.99 1010.97 1011.98 1012.87 1013.50 1013.81 1013.75 1013.38 1012.80 1012.14 1011.55 1011.14 1010.98 1011.09 1011.41 1011.86 1012.35 1012.79 1013.11 1013.29 1013.36 1013.36 1013.37 1013.44 1013.64 1013.95 1014.37 1014.84 1015.31 1015.71 1015.99 1016.15 1016.17 1016.11 1016.01 1015.91 1015.87 1015.91
1008.21 1008.02 1007.89 1007.96 1008.29 1008.94 1009.86 1010.95 1012.06 1013.03 1013.72 1014.03 1013.94 1013.50 1012.82 1012.04 1011.32 1010.79 1010.52 1010.54 1010.80 1011.22 1011.71 1012.17 1012.52 1012.75 1012.87 1012.92 1012.98 1013.11 1013.36 1013.72 1014.19 1014.71 1015.21 1015.63 1015.93 1016.09 1016.11 1016.04 1015.93 1015.83 1015.80 1015.86
1007.89 1007.68 1007.57 1007.69 1008.10 1008.83 1009.84 1011.01 1012.19 1013.20 1013.90 1014.19 1014.05 1013.53 1012.74 1011.83 1010.98 1010.31 1009.92 1009.83 1010.01 1010.39 1010.86 1011.34 1011.74 1012.03 1012.23 1012.37 1012.52 1012.74 1013.06 1013.49 1014.01 1014.57 1015.10 1015.55 1015.86 1016.03 1016.06 1015.99 1015.89 1015.80 1015.78 1015.84
1007.68 1007.47 1007.40 1007.57 1008.05 1008.84 1009.90 1011.11 1012.31 1013.31 1013.98 1014.23 1014.03 1013.42 1012.53 1011.52 1010.54 1009.75 1009.24 1009.05 1009.14 1009.47 1009.93 1010.42 1010.87 1011.24 1011.53 1011.79 1012.04 1012.35 1012.75 1013.25 1013.82 1014.41 1014.96 1015.43 1015.76 1015.94 1015.99 1015.94 1015.85 1015.78 1015.75 1015.81
1007.61 1007.42 1007.39 1007.60 1008.12 1008.94 1010.00 1011.18 1012.33 1013.28 1013.89 1014.07 1013.81 1013.14 1012.19 1011.10 1010.05 1009.18 1008.58 1008.30 1008.33 1008.61 1009.05 1009.55 1010.05 1010.50 1010.89 1011.24 1011.60 1012.00 1012.47 1013.01 1013.61 1014.21 1014.77 1015.24 1015.57 1015.77 1015.83 1015.81 1015.74 1015.68 1015.66 1015.71
1007.68 1007.52 1007.52 1007.76 1008.27 1009.06 1010.06 1011.16 1012.21 1013.05 1013.57 1013.68 1013.36 1012.67 1011.70 1010.60 1009.54 1008.65 1008.02 1007.70 1007.69 1007.93 1008.35 1008.87 1009.40 1009.91 1010.38 1010.82 1011.26 1011.72 1012.23 1012.80 1013.39 1013.97 1014.51 1014.95 1015.28 1015.48 1015.56 1015.56 1015.52 1015.48 1015.47 1015.50
1007.85 1007.74 1007.76 1007.99 1008.46 1009.17 1010.05 1011.00 1011.89 1012.60 1013.01 1013.05 1012.70 1012.02 1011.09 1010.06 1009.05 1008.20 1007.60 1007.29 1007.27 1007.50 1007.91 1008.43 1008.99 1009.54 1010.07 1010.56 1011.05 1011.54 1012.06 1012.60 1013.16 1013.69 1014.18 1014.58 1014.88 1015.07 1015.16 1015.18 1015.16 1015.14 1015.14 1015.17
1008.07 1008.00 1008.05 1008.25 1008.65 1009.23 1009.94 1010.70 1011.41 1011.95 1012.23 1012.20 1011.85 1011.22 1010.39 1009.47 1008.59 1007.84 1007.32 1007.07 1007.08 1007.31 1007.73 1008.25 1008.81 1009.38 1009.93 1010.45 1010.95 1011.45 1011.94 1012.44 1012.93 1013.39 1013.80 1014.14 1014.39 1014.56 1014.65 1014.68 1014.69 1014.69 1014.71 1014.75
1008.28 1008.26 1008.32 1008.50 1008.80 1009.23 1009.76 1010.31 1010.80 1011.16 1011.32 1011.23 1010.89 1010.33 1009.62 1008.86 1008.14 1007.55 1007.15 1006.98 1007.03 1007.29 1007.70 1008.22 1008.78 1009.35 1009.90 1010.42 1010.92 1011.39 1011.85 1012.29 1012.70 1013.09 1013.41 1013.68 1013.88 1014.01 1014.09 1014.13 1014.16 1014.18 1014.23 1014.28
1008.43 1008.47 1008.55 1008.70 1008.92 1009.20 1009.54 1009.88 1010.17 1010.35 1010.37 1010.22 1009.89 1009.42 1008.84 1008.25 1007.70 1007.27 1007.00 1006.92 1007.03 1007.31 1007.72 1008.22 1008.76 1009.32 1009.86 1010.37 1010.85 1011.30 1011.72 1012.11 1012.47 1012.77 1013.03 1013.23 1013.38 1013.48 1013.55 1013.59 1013.63 1013.68 1013.75 1013.82
1008.51 1008.62 1008.73 1008.86 1009.01 1009.17 1009.34 1009.49 1009.59 1009.60 1009.50 1009.29 1008.96 1008.55 1008.09 1007.64 1007.25 1006.96 1006.81 1006.81 1006.96 1007.25 1007.65 1008.13 1008.64 1009.17 1009.69 1010.19 1010.67 1011.10 1011.51 1011.87 1012.18 1012.44 1012.66 1012.82 1012.93 1013.01 1013.07 1013.12 1013.17 1013.23 1013.31 1013.41
1008.53 1008.70 1008.86 1008.99 1009.10 1009.18 1009.22 1009.21 1009.15 1009.01 1008.80 1008.51 1008.17 1007.79 1007.41 1007.07 1006.79 1006.60 1006.53 1006.58 1006.76 1007.04 1007.41 1007.84 1008.31 1008.81 1009.31 1009.80 1010.28 1010.72 1011.13 1011.49 1011.81 1012.07 1012.28 1012.43 1012.54 1012.62 1012.68 1012.73 1012.79 1012.86 1012.95 1013.05
1008.53 1008.76 1008.96 1009.11 1009.21 1009.24 1009.20 1009.08 1008.89 1008.63 1008.31 1007.96 1007.58 1007.20 1006.86 1006.56 1006.34 1006.21 1006.17 1006.24 1006.40 1006.64 1006.95 1007.33 1007.75 1008.20 1008.68 1009.16 1009.64 1010.11 1010.55 1010.96 1011.31 1011.62 1011.86 1012.05 1012.19 1012.29 1012.36 1012.43 1012.49 1012.55 1012.63 1012.72
1008.53 1008.80 1009.04 1009.23 1009.34 1009.36 1009.28 1009.10 1008.82 1008.47 1008.07 1007.64 1007.22 1006.81 1006.46 1006.17 1005.96 1005.83 1005.78 1005.82 1005.93 1006.10 1006.34 1006.64 1006.99 1007.38 1007.82 1008.29 1008.79 1009.29 1009.78 1010.25 1010.67 1011.05 1011.37 1011.62 1011.82 1011.97 1012.08 1012.16 1012.22 1012.28 1012.33 1012.39
1008.54 1008.83 1009.11 1009.34 1009.49 1009.52 1009.44 1009.24 1008.92 1008.51 1008.05 1007.56 1007.08 1006.64 1006.25 1005.93 1005.69 1005.53 1005.45 1005.42 1005.45 1005.54 1005.69 1005.89 1006.15 1006.47 1006.85 1007.29 1007.78 1008.31 1008.85 1009.39 1009.90 1010.37 1010.78 1011.13 1011.40 1011.61 1011.76 1011.87 1011.93 1011.97 1012.00 1012.02
1008.56 1008.86 1009.16 1009.42 1009.60 1009.68 1009.62 1009.43 1009.11 1008.68 1008.19 1007.66 1007.14 1006.65 1006.23 1005.88 1005.60 1005.39 1005.25 1005.15 1005.10 1005.10 1005.13 1005.23 1005.38 1005.61 1005.91 1006.30 1006.76 1007.29 1007.86 1008.46 1009.04 1009.60 1010.10 1010.54 1010.90 1011.17 1011.37 1011.50 1011.57 1011.60 1011.59 1011.57
1008.56 1008.84 1009.15 1009.43 1009.66 1009.78 1009.76 1009.60 1009.30 1008.89 1008.40 1007.86 1007.33 1006.83 1006.38 1006.00 1005.70 1005.45 1005.26 1005.10 1004.98 1004.88 1004.82 1004.80 1004.84 1004.96 1005.17 1005.48 1005.88 1006.38 1006.94 1007.55 1008.18 1008.79 1009.36 1009.87 1010.30 1010.63 1010.87 1011.03 1011.11 1011.12 1011.09 1011.03
1008.50 1008.75 1009.05 1009.35 1009.60 1009.76 1009.80 1009.69 1009.44 1009.07 1008.61 1008.10 1007.59 1007.10 1006.66 1006.29 1005.98 1005.73 1005.51 1005.32 1005.14 1004.98 1004.83 1004.72 1004.65 1004.65 1004.75 1004.95 1005.27 1005.69 1006.21 1006.79 1007.41 1008.03 1008.62 1009.16 1009.63 1010.00 1010.26 1010.44 1010.52 1010.53 1010.48 1010.40
1008.34 1008.56 1008.84 1009.15 1009.42 1009.62 1009.71 1009.66 1009.48 1009.17 1008.78 1008.33 1007.87 1007.43 1007.03 1006.70 1006.42 1006.19 1005.99 1005.80 1005.61 1005.41 1005.20 1005.01 1004.85 1004.75 1004.73 1004.82 1005.02 1005.33 1005.75 1006.26 1006.81 1007.39 1007.95 1008.47 1008.92 1009.29 1009.56 1009.73 1009.82 1009.83 1009.78 1009.70
1008.07 1008.27 1008.54 1008.84 1009.13 1009.37 1009.51 1009.52 1009.41 1009.19 1008.87 1008.51 1008.13 1007.77 1007.45 1007.19 1006.98 1006.80 1006.65 1006.49 1006.31 1006.11 1005.89 1005.65 1005.42 1005.24 1005.12 1005.08 1005.16 1005.34 1005.63 1006.01 1006.45 1006.92 1007.40 1007.84 1008.23 1008.55 1008.78 1008.94 1009.01 1009.02 1008.99 1008.93
1007.72 1007.90 1008.16 1008.47 1008.78 1009.05 1009.23 1009.31 1009.28 1009.14 1008.92 1008.66 1008.38 1008.11 1007.89 1007.72 1007.59 1007.49 1007.40 1007.30 1007.17 1007.00 1006.78 1006.53 1006.27 1006.03 1005.83 1005.69 1005.64 1005.69 1005.83 1006.05 1006.33 1006.66 1006.99 1007.30 1007.58 1007.80 1007.97 1008.07 1008.12 1008.13 1008.12 1008.09
1007.33 1007.52 1007.79 1008.11 1008.44 1008.73 1008.96 1009.10 1009.14 1009.09 1008.97 1008.80 1008.62 1008.46 1008.33 1008.25 1008.20 1008.18 1008.17 1008.14 1008.06 1007.94 1007.76 1007.53 1007.27 1007.00 1006.74 1006.53 1006.37 1006.28 1006.27 1006.32 1006.43 1006.56 1006.71 1006.85 1006.98 1007.07 1007.12 1007.15 1007.16 1007.16 1007.16 1007.17
1006.99 1007.20 1007.50 1007.83 1008.18 1008.51 1008.78 1008.98 1009.08 1009.11 1009.07 1008.99 1008.90 1008.83 1008.78 1008.77 1008.79 1008.84 1008.88 1008.90 1008.88 1008.81 1008.67 1008.48 1008.24 1007.97 1007.69 1007.43 1007.19 1007.00 1006.85 1006.73 1006.65 1006.59 1006.54 1006.48 1006.42 1006.35 1006.27 1006.20 1006.14 1006.11 1006.11 1006.16
Thickness
5810 5793 5786 5797 5806 5802 5794 5780 5767 5770 5784 5779 5765 5754 5750 5754 5753 5750 5750 5748 5745 5745 5748 5749 5749 5747 5744 5742 5740 5738 5735 5732 5730 5727 5724 5721 5719 5718 5718 5716 5711 5708 5706 5704
5801 5790 5805 5815 5813 5805 5791 5777 5774 5778 5788 5779 5765 5759 5760 5759 5755 5752 5746 5742 5740 5740 5741 5741 5744 5744 5743 5741 5739 5737 5734 5732 5729 5726 5723 5720 5718 5718 5717 5714 5711 5707 5704 5701
5801 5808 5820 5814 5805 5795 5786 5777 5779 5779 5782 5772 5757 5746 5754 5759 5760 5757 5752 5748 5745 5743 5741 5740 5742 5744 5744 5741 5740 5739 5736 5733 5729 5727 5724 5722 5718 5715 5714 5711 5709 5706 5703 5700
5810 5818 5816 5808 5801 5798 5782 5794 5794 5786 5769 5750 5748 5728 5747 5757 5755 5755 5755 5752 5749 5749 5747 5745 5745 5745 5745 5745 5745 5742 5738 5734 5730 5726 5722 5718 5713 5710 5710 5709 5708 5705 5702 5700
5805 5813 5810 5802 5803 5805 5798 5805 5790 5772 5753 5740 5742 5741 5745 5760 5753 5757 5760 5760 5757 5756 5754 5750 5750 5750 5751 5751 5749 5745 5739 5734 5730 5726 5722 5717 5713 5711 5710 5707 5706 5704 5702 5700
5812 5821 5817 5812 5816 5813 5809 5797 5775 5754 5731 5709 5737 5748 5743 5758 5762 5765 5767 5766 5764 5763 5761 5757 5757 5756 5754 5754 5751 5747 5739 5734 5730 5726 5722 5717 5712 5709 5705 5703 5701 5701 5701 5701
5791 5792 5802 5810 5800 5803 5798 5777 5740 5713 5702 5715 5761 5763 5757 5776 5783 5779 5774 5771 5770 5768 5764 5760 5758 5756 5755 5753 5751 5747 5740 5733 5730 5725 5721 5717 5713 5709 5705 5702 5701 5699 5698 5698
5776 5760 5782 5798 5796 5792 5794 5786 5755 5734 5734 5749 5771 5763 5772 5791 5793 5791 5786 5780 5775 5771 5769 5766 5763 5761 5758 5755 5752 5747 5740 5734 5730 5725 5721 5717 5713 5709 5707 5704 5701 5698 5695 5694
5788 5778 5800 5807 5812 5804 5790 5788 5793 5776 5770 5753 5756 5771 5775 5790 5787 5787 5785 5781 5776 5775 5774 5771 5768 5765 5761 5757 5752 5748 5740 5734 5730 5726 5721 5716 5712 5708 5704 5701 5698 5696 5694 5692
5804 5784 5798 5807 5810 5807 5803 5797 5788 5772 5751 5739 5735 5743 5755 5772 5776 5782 5782 5780 5779 5779 5777 5775 5772 5768 5764 5759 5753 5748 5741 5734 5730 5725 5721 5718 5713 5709 5704 5700 5697 5694 5691 5688
5810 5784 5787 5794 5779 5776 5787 5788 5783 5779 5772 5747 5721 5732 5776 5781 5785 5784 5785 5786 5784 5782 5780 5777 5774 5771 5765 5760 5753 5746 5740 5734 5729 5724 5721 5716 5713 5709 5705 5701 5697 5694 5690 5686
5806 5791 5775 5774 5785 5789 5786 5789 5783 5763 5758 5765 5750 5748 5791 5794 5797 5795 5793 5791 5790 5787 5784 5780 5775 5769 5763 5758 5752 5745 5740 5734 5729 5725 5721 5716 5712 5707 5703 5699 5697 5693 5689 5685
5799 5778 5757 5749 5748 5760 5766 5782 5787 5781 5771 5762 5749 5751 5789 5794 5795 5796 5794 5792 5790 5786 5783 5779 5773 5766 5761 5756 5752 5747 5741 5736 5732 5727 5721 5716 5711 5707 5702 5699 5695 5691 5687 5683
5800 5776 5760 5739 5735 5752 5757 5773 5784 5779 5766 5761 5759 5762 5779 5786 5788 5791 5792 5791 5788 5784 5780 5775 5769 5764 5759 5755 5751 5746 5741 5738 5733 5728 5721 5715 5711 5707 5702 5698 5694 5690 5685 5680
5793 5772 5773 5775 5778 5776 5776 5783 5786 5782 5779 5769 5772 5775 5782 5789 5791 5791 5791 5789 5784 5780 5776 5772 5767 5761 5757 5752 5749 5744 5740 5737 5732 5726 5720 5715 5711 5706 5702 5697 5692 5687 5682 5677
5786 5768 5767 5767 5780 5783 5782 5790 5790 5787 5786 5782 5780 5779 5794 5796 5795 5790 5788 5785 5780 5777 5775 5772 5767 5762 5755 5751 5747 5743 5738 5735 5730 5723 5718 5714 5709 5704 5698 5693 5688 5683 5678 5673
5777 5767 5757 5754 5770 5770 5763 5780 5783 5781 5786 5782 5771 5778 5791 5788 5786 5785 5785 5783 5780 5779 5777 5773 5769 5763 5758 5753 5748 5743 5738 5734 5728 5721 5716 5711 5706 5700 5695 5690 5685 5679 5673 5667
5772 5761 5756 5753 5753 5734 5764 5792 5789 5780 5783 5789 5787 5788 5789 5787 5789 5790 5788 5784 5780 5779 5777 5775 5772 5767 5762 5757 5752 5745 5739 5732 5726 5719 5713 5709 5703 5697 5692 5685 5679 5673 5667 5660
5780 5763 5753 5749 5742 5747 5765 5774 5771 5765 5764 5780 5781 5782 5785 5788 5784 5781 5785 5783 5780 5780 5778 5776 5774 5770 5765 5759 5754 5745 5738 5731 5724 5717 5711 5707 5701 5694 5687 5680 5673 5667 5660 5654
5769 5763 5750 5748 5736 5730 5748 5761 5770 5759 5741 5761 5766 5768 5771 5773 5757 5759 5775 5777 5774 5777 5777 5774 5772 5769 5762 5758 5753 5743 5735 5728 5721 5716 5711 5705 5699 5690 5682 5675 5669 5662 5655 5649
5730 5741 5744 5744 5739 5746 5753 5762 5763 5728 5719 5746 5754 5758 5761 5758 5756 5765 5771 5771 5770 5770 5770 5769 5765 5761 5758 5755 5748 5738 5732 5725 5720 5714 5708 5701 5694 5686 5678 5670 5663 5656 5649 5643
5734 5742 5744 5742 5728 5726 5747 5748 5733 5727 5738 5742 5748 5753 5754 5756 5758 5759 5758 5757 5757 5756 5757 5755 5751 5750 5750 5747 5739 5731 5725 5722 5715 5708 5701 5694 5687 5680 5674 5665 5658 5651 5643 5636
5754 5755 5754 5745 5737 5741 5744 5739 5737 5742 5738 5740 5743 5746 5748 5745 5743 5742 5740 5739 5739 5738 5738 5739 5737 5735 5734 5733 5728 5720 5716 5712 5706 5699 5692 5687 5680 5674 5667 5659 5651 5644 5637 5631
5757 5763 5749 5736 5728 5731 5733 5736 5739 5739 5737 5737 5737 5736 5735 5730 5728 5725 5723 5722 5721 5721 5720 5720 5718 5715 5714 5714 5712 5709 5707 5703 5696 5689 5682 5676 5670 5664 5659 5652 5646 5639 5633 5627
5754 5753 5744 5732 5725 5718 5717 5724 5729 5731 5730 5728 5726 5724 5720 5716 5712 5710 5707 5705 5704 5704 5703 5702 5699 5697 5696 5697 5695 5694 5692 5689 5683 5677 5672 5666 5661 5656 5651 5646 5641 5636 5632 5626
5754 5746 5737 5727 5728 5721 5710 5721 5724 5720 5716 5713 5709 5706 5705 5701 5697 5695 5692 5690 5689 5687 5686 5684 5683 5682 5681 5681 5680 5679 5677 5674 5668 5663 5659 5656 5652 5649 5646 5641 5638 5635 5628 5623